Flag for Canada Weather past 2 weeks in MD of Lunenburg, Nova Scotia, Canada

Now
49 °F

Cool.


Feels Like: 46 °F
Forecast: 48 / 59 °F
Wind: 7 mph from West

Location: McNabs Island - AUT

Current Time: Sep 23, 2014 at 8:07:05 AM

Latest Report: Sep 23, 2014 at 7:00 AM


Visibility: N/A

Pressure: 30.00 "Hg

Humidity: 85%

Dew point: 45 °F

Location of MD of LunenburgLocation

Historic Weather in MD of Lunenburg — Graph

°F

MD of Lunenburg temperature yesterday

Maximum temperature yesterday: 73 °F (at 11:00 AM)
Minimum temperature yesterday: 60 °F (at 11:00 PM)
Average temperature yesterday: 67 °F

Past Weeks' High & Low Weather Summary

 TemperatureHumidityPressure
High73 °F (Sep 22, 11:00 AM)100% (Sep 22, 2:00 AM)30.45 "Hg (Sep 22, 2:00 AM)
Low44 °F (Sep 20, 3:00 AM)33% (Sep 19, 6:00 PM)29.39 "Hg (Sep 22, 7:00 AM)
Average59 °F76%30.02 "Hg
* Reported Sep 11 10:00 AM — Sep 23 7:00 AM, MD of Lunenburg, Weather by CustomWeather, © 2014

Note: Actual official high and low records may vary slightly from our data, if they occured in-between our weather recording intervals... More about our weather records

Advertising

MD of Lunenburg weather history for previous 24 hours

 ConditionsComfort  
Time TempWeatherWind HumidityBarometerVisibility
7:00 AM
Sep 23
49 °FCool.7 mph85%30.00 "HgN/A
6:00 AM49 °FCool.8 mph85%29.97 "HgN/A
5:00 AM50 °FCool.5 mph80%29.94 "HgN/A
4:00 AM51 °FCool.9 mph78%29.91 "HgN/A
3:00 AM52 °FCool.7 mph73%29.89 "HgN/A
2:00 AM54 °FCool.7 mph70%29.87 "HgN/A
1:00 AM54 °FCool.8 mph79%29.84 "HgN/A
12:00 AM59 °FCool.8 mph70%29.81 "HgN/A
11:00 PM
Sep 22
60 °FCool.10 mph84%29.78 "HgN/A
10:00 PM62 °FCool.16 mph85%29.74 "HgN/A
9:00 PM63 °FMild.17 mph83%29.70 "HgN/A
8:00 PM63 °FMild.21 mph85%29.67 "HgN/A
7:00 PM64 °FMild.22 mph87%29.64 "HgN/A
6:00 PM65 °FMild.23 mph86%29.62 "HgN/A
5:00 PM66 °FMild.23 mph88%29.61 "HgN/A
4:00 PM65 °FMild.24 mph92%29.61 "HgN/A
3:00 PM70 °FMild.20 mph85%29.59 "HgN/A
2:00 PM71 °FMild.24 mph82%29.58 "HgN/A
1:00 PM73 °FMild.21 mph80%29.57 "HgN/A
12:00 PM73 °FMild.18 mph81%29.54 "HgN/A
11:00 AM73 °FMild.9 mph81%29.52 "HgN/A
10:00 AM70 °FMild.9 mph92%29.48 "HgN/A
9:00 AM67 °FMild.13 mph97%29.44 "HgN/A
8:00 AM68 °FMild.18 mph95%29.42 "HgN/A
Weather by CustomWeather, © 2014

See weather overviewHow to use our weather pages